Location: Wavehorne
(51.0500°N, 0.8333°E)
Time: 00:56:14
(UTC+00:00)

Helios 1A - Pass Details

Date: 20 June 2021
Orbit: 584 x 601 km, 98.2° (Epoch: 23 July)

Event Time Altitude Azimuth Distance (km) Brightness Sun altitude
Exits shadow 00:59:49 21° 168° (SSE) 1,353 4.3 -14.3°
Maximum altitude 01:02:35 83° 255° (WSW) 608 2.9 -14.2°
Drops below altitude 10° 01:06:50 10° 344° (NNW) 1,950 6.5 -14.0°
Sets 01:09:01 0° 345° (NNW) 2,860 7.5 -13.9°
